Location: Te Maire Creek
(41.1333°S, 175.9167°E)
Time: 23:33:24
(UTC+00:00)

COSMO-SKYMED 1 - Pass Details

Date: 19 May 2024
Orbit: 621 x 623 km, 97.9° (Epoch: 22 June)

Event Time Altitude Azimuth Distance (km) Brightness Sun altitude
Rises 18:26:50 0° 169° (S) 2,945 6.0 -10.5°
Reaches altitude 10° 18:29:03 10° 169° (S) 2,030 5.1 -10.1°
Maximum altitude 18:33:28 82° 255° (WSW) 645 2.6 -9.3°
Drops below altitude 10° 18:37:51 10° 343° (NNW) 2,002 5.2 -8.5°
Sets 18:40:01 0° 344° (NNW) 2,901 6.0 -8.1°
